#timestamp,LO_Frequency,Hit,StdDev 
1540317615.4,286047000.0,N
1540317635.2,286047000.5,N
1540317655.1,286047000.1,N
1540317656.0,286047000.1,N
1540317675.8,286047001.6,N
1540317695.6,286047002.3,N
1540317715.5,286047000.5,N
1540317735.3,286047002.5,N
1540317755.1,286047002.5,N
1540317775.9,286047004.0,Y
1540317795.7,286047000.9,P
1540317815.6,286046999.8,P
1540317835.4,286046998.5,N
1540317855.2,286047000.5,N
1540317875.1,286047000.6,N
1540317876.0,286047000.6,N
1540317895.8,286047001.1,N
1540317915.6,286046998.7,N
1540317935.5,286047001.1,N
1540317955.3,286046999.8,N
1540317975.2,286047000.7,N
1540317995.9,286047000.9,N
1540318015.7,286047002.7,Y
1540318035.6,286046999.7,P
1540318055.4,286047001.0,P
1540318075.2,286046998.4,P
1540318095.1,286046998.6,N
1540318096.0,286046998.6,N
1540318115.8,286047001.2,N
1540318135.7,286047001.1,N
1540318155.5,286047000.0,N
1540318175.3,286047000.6,N
1540318195.2,286047000.8,N
1540318215.0,286047001.2,N
1540318215.9,286047001.2,N
1540318235.7,286046999.6,N
1540318255.6,286046999.2,N
1540318275.4,286047000.8,N
1540318295.3,286047001.1,N
1540318315.1,286047000.5,N
1540318335.8,286047000.7,N
1540318355.7,286047000.5,N
1540318375.5,286046998.6,N
1540318395.4,286047001.1,N
1540318415.2,286046998.7,N
1540318435.0,286047000.1,N
1540318435.9,286047000.1,N
1540318455.8,286046999.8,N
1540318475.6,286047004.4,Y
1540318495.4,286047002.5,P
1540318515.3,286047000.6,N
1540318535.1,286047000.7,N
1540318555.9,286046998.6,N
1540318575.7,286047000.4,N
1540318595.5,286046999.7,N
1540318615.4,286047001.6,N
1540318635.2,286046999.7,N
1540318655.0,286047002.5,N
1540318655.9,286047002.5,N
1540318675.8,286047001.6,N
1540318695.6,286046999.7,N
1540318715.5,286046999.9,N
1540318735.3,286046999.7,N
1540318755.1,286046999.9,N
1540318775.9,286046998.1,N
1540318795.7,286047000.5,N
1540318815.5,286046998.6,N
1540318835.4,286046998.8,N
1540318855.2,286047000.2,N
1540318875.1,286047000.3,N
1540318876.0,286047000.3,N
1540318895.8,286047000.5,N
1540318915.6,286046999.9,N
1540318935.5,286047000.1,N
1540318955.3,286047002.4,N
1540318975.1,286047002.2,N
1540318995.9,286047004.0,Y
1540319015.7,286047001.7,P
1540319035.6,286047004.4,P
1540319055.4,286047002.0,N
1540319075.2,286047001.9,N
1540319095.1,286047003.3,N
1540319096.0,286047003.3,N
1540319115.8,286047003.1,N
1540319135.6,286047003.0,N
1540319155.5,286047005.8,Y
1540319175.3,286047002.4,P
1540319195.2,286047001.9,P
1540319215.9,286047002.3,P
1540319235.7,286047002.5,Y
1540319255.6,286046998.8,P
1540319275.4,286046998.5,N
1540319295.2,286046998.4,N
1540319315.1,286046999.0,N
1540319316.0,286046999.0,N
1540319335.8,286046998.6,N
1540319355.7,286046998.1,N
1540319375.5,286046999.0,N
1540319395.3,286046998.9,N
1540319415.2,286046996.9,N
1540319435.0,286046997.6,N
1540319435.9,286046997.6,N
1540319455.8,286046996.9,N
1540319475.6,286046997.3,N
1540319495.4,286046999.5,N
1540319515.3,286046999.2,N
1540319535.1,286046999.6,N
1540319555.8,286046999.6,N
1540319575.7,286046999.3,N
1540319595.5,286046999.0,N
1540319615.4,286046998.5,N
1540319635.2,286046998.8,N
1540319655.0,286046998.9,N
1540319655.9,286046998.9,N
1540319675.8,286046999.1,N
1540319695.6,286046998.8,N
1540319715.5,286046999.1,N
1540319735.3,286046997.4,N
1540319755.1,286046996.5,Y
1540319775.9,286046999.3,P
1540319795.7,286046999.4,N
1540319815.5,286046997.0,P
1540319835.4,286046996.6,Y
1540319855.2,286046998.1,P
1540319875.1,286047001.2,P
1540319876.0,286047001.2,N
1540319895.8,286047000.6,N
1540319915.6,286047000.5,N
1540319935.5,286047001.2,N
1540319955.3,286047000.8,N
1540319975.1,286046999.3,N
1540319995.9,286047001.1,N
1540320015.7,286046999.0,N
1540320035.6,286046999.2,N
1540320055.4,286046996.8,N
1540320075.2,286046996.7,N
1540320095.1,286046997.3,N
1540320096.0,286046997.3,N
1540320115.8,286046996.6,N
1540320135.6,286046998.4,N
1540320155.5,286046999.3,N
1540320175.3,286046999.2,N
1540320195.2,286046998.3,N
1540320215.9,286046999.4,N
1540320235.7,286046996.6,N
1540320255.6,286046996.8,N
1540320275.4,286046997.9,N
1540320295.2,286046997.4,N
1540320315.1,286046997.5,N
1540320316.0,286046997.5,N
1540320335.8,286046997.6,N
1540320355.7,286046997.1,N
1540320375.5,286046997.1,N
1540320395.3,286046997.3,N
1540320415.2,286046997.3,N
1540320435.0,286046997.8,N
1540320435.9,286046997.8,N
1540320455.8,286046995.4,Y
1540320475.6,286046998.9,P
1540320495.4,286046998.4,P
1540320515.3,286046999.1,P
1540320535.1,286046996.5,Y
1540320555.9,286046999.4,P
1540320575.7,286046998.3,P
1540320595.5,286047000.8,N
1540320615.4,286046998.2,N
1540320635.2,286047001.2,N
1540320655.0,286046998.2,N
1540320655.9,286046998.2,N
1540320675.8,286047001.0,N
1540320695.6,286046998.2,N
1540320715.5,286046998.2,N
1540320735.3,286046999.7,N
1540320755.1,286047001.0,N
1540320775.9,286047000.1,N
1540320795.7,286046999.7,N
1540320815.6,286047002.4,N
1540320835.4,286046999.8,N
1540320855.2,286046999.7,N
1540320875.1,286047000.2,N
1540320876.0,286047000.2,N
1540320895.8,286047001.2,N
1540320915.6,286046998.3,N
1540320935.5,286046999.0,N
1540320955.3,286046998.3,N
1540320975.2,286047001.1,N
1540320995.9,286046998.5,N
1540321015.7,286047000.5,N
1540321035.6,286046998.5,N
1540321055.4,286047000.8,N
1540321075.3,286047001.0,N
1540321095.1,286047000.8,N
1540321096.0,286047000.8,N
1540321115.8,286047000.7,N
1540321135.7,286046998.9,N
1540321155.5,286046999.4,N
1540321175.3,286046999.2,N
1540321195.2,286046999.6,N
